User: anonymous
Location: Deep South Regional Star Gaze
(30.9929°N, 90.9586°W)
Time: 10:50:17
(UTC-05:00)
Language:

H-2A R/B - Orbit

View from above orbital plane
View from above orbital plane
View from above satellite
View from above satellite

Ground track
Ground track

The orbit data is extracted from the following two-line orbital elements,

1 26899U 01038B   14261.01556311  .00001161  00000-0  68134-3 0   391
2 26899 028.0324 110.2835 7145544 248.0313 348.1600 02.43824263111791
Epoch (UTC): 18 September 2014 00:22:24
Eccentricity: 0.7145544
inclination: 28.0324°
perigee height: 278 km
apogee height: 33601 km
right ascension of ascending node: 110.2835°
argument of perigee: 248.0313°
revolutions per day: 2.43824263
mean anomaly at epoch: 348.1600°
orbit number at epoch: 11179

The dashed part of the orbit path shows where the satellite is in the earth's shadow,  

DLR